Temperature
17 17 17 17 17 18 18 18 18 18 18 18 18 18 18 18 18 18 18 18 18 18 18 18 18 18 18 18 18 18 18 18 18 18 18 18 18 18 18 18 18 18 18
17 17 17 17 17 17 18 18 18 18 18 18 18 18 18 18 18 18 18 18 18 18 18 18 18 18 18 18 18 18 18 18 18 18 18 17 17 18 18 18 18 18 18
17 17 17 17 17 17 17 18 18 17 17 17 17 17 17 17 17 17 17 18 18 18 17 17 17 17 17 17 17 17 17 17 17 17 17 17 17 17 17 17 17 17 17
17 17 17 17 17 17 17 17 17 17 17 17 17 17 17 17 17 17 17 17 17 17 17 17 17 17 17 17 17 17 17 17 17 17 17 17 17 17 17 17 17 17 17
17 17 17 17 17 17 17 17 17 17 17 17 17 17 17 17 17 17 17 17 17 17 17 17 17 17 17 17 17 17 17 17 17 17 17 17 17 17 17 17 17 17 17
17 17 17 17 17 17 17 17 17 17 17 17 17 17 17 17 17 17 17 17 17 17 17 17 17 17 17 17 17 17 17 17 17 17 17 16 16 16 17 17 17 17 17
17 17 17 17 17 17 17 17 17 17 17 17 17 16 16 16 16 17 17 17 17 17 17 17 17 16 16 16 16 16 16 16 16 16 16 16 16 16 16 16 17 17 17
17 17 17 17 17 17 17 17 17 17 16 16 16 16 16 16 16 16 16 16 17 16 16 16 16 16 16 16 16 16 16 16 16 16 16 16 16 16 16 16 16 16 16
17 17 17 17 17 17 17 17 16 16 16 16 16 16 16 16 16 16 16 16 16 16 16 16 16 16 16 16 16 16 16 16 16 16 16 16 16 16 16 16 16 16 16
17 17 17 17 17 17 17 16 16 16 16 16 16 16 16 16 16 16 16 16 16 16 16 16 16 16 16 16 16 16 16 16 16 16 16 16 16 16 16 16 16 16 16
17 17 17 17 17 17 16 16 16 16 16 16 16 16 16 16 16 16 16 16 16 16 16 16 16 16 16 16 15 15 15 15 15 15 15 15 15 15 15 16 16 15 15
17 17 17 17 17 16 16 16 16 16 16 16 16 16 16 16 16 16 16 15 15 15 15 15 15 15 15 15 15 15 15 15 15 15 15 15 15 15 15 15 15 15 15
17 17 16 16 16 16 16 16 16 16 16 16 16 16 16 16 16 16 16 15 15 15 15 15 15 15 15 15 15 15 15 15 15 15 15 15 15 15 15 15 15 15 15
17 17 16 16 16 16 16 16 16 16 16 16 16 16 16 16 15 15 15 15 15 15 15 15 15 15 15 15 15 15 15 15 15 15 15 14 15 14 14 14 14 14 14
17 17 17 16 16 16 16 16 16 16 16 16 16 15 15 15 15 15 15 15 15 15 15 15 15 15 15 15 15 15 15 14 14 14 14 14 14 14 14 14 14 14 14
17 17 16 16 16 16 16 16 16 16 16 15 15 15 15 15 15 15 15 15 15 15 15 15 15 15 15 15 15 15 14 14 14 14 14 14 14 14 14 14 14 14 14
17 17 17 16 16 16 16 16 16 16 15 15 15 15 15 15 15 15 15 15 15 15 15 15 15 15 15 15 14 14 14 14 14 14 14 14 14 14 14 14 14 13 13
17 17 16 16 16 16 16 16 16 15 15 15 15 15 15 15 15 15 15 15 15 15 15 15 15 14 14 14 14 14 14 14 14 14 14 14 14 14 14 14 14 13 13
17 17 16 16 16 16 16 16 15 15 15 15 15 15 15 15 15 15 15 15 15 14 14 14 14 14 14 14 14 14 14 14 14 14 14 13 13 13 13 13 13 13 13
17 17 16 16 16 16 15 15 15 15 15 15 15 15 15 15 15 14 14 14 14 14 14 14 14 14 14 14 14 13 13 13 13 13 13 13 13 13 13 13 13 13 13
17 16 16 16 16 16 15 15 15 15 15 14 14 14 14 14 14 14 14 14 14 14 14 14 14 14 14 14 14 13 13 13 13 13 13 13 13 13 13 13 13 13 13
17 16 16 16 16 15 15 15 15 15 14 14 14 14 14 14 14 14 14 14 14 13 13 13 13 13 13 13 13 13 12 12 12 12 12 13 12 13 13 13 13 13 13
16 16 16 16 15 15 15 15 15 14 14 14 14 14 14 14 14 13 13 13 13 13 13 13 13 13 13 12 12 12 12 12 12 12 12 12 12 12 12 12 12 12 12
16 16 16 16 15 15 15 15 14 14 14 14 14 14 13 13 13 13 13 13 13 13 13 13 12 12 12 12 12 12 12 12 11 11 11 12 12 12 12 12 12 12 12
16 16 16 15 15 15 15 14 14 14 14 14 13 13 13 13 13 13 13 13 13 12 12 12 12 12 12 12 12 12 12 12 11 11 11 11 11 11 11 11 11 11 12
16 16 15 15 15 15 14 14 14 14 14 14 13 13 13 13 13 12 12 12 12 12 12 12 12 12 12 12 12 12 11 11 11 11 11 11 11 11 11 11 11 11 11
Wind_Speed
2 2 6 8 10 11 11 12 12 12 13 13 13 13 13 13 13 13 13 13 12 12 13 13 13 13 12 12 11 11 12 12 12 11 11 11 11 10 10 9 8 7 9
2 1 5 8 10 11 12 12 12 12 12 13 13 13 13 13 13 13 13 12 12 12 13 13 13 12 12 11 11 11 11 11 12 11 11 10 10 10 10 9 8 7 8
3 3 5 8 9 11 12 12 12 12 13 13 14 14 14 14 13 13 13 12 12 12 13 13 12 12 11 11 11 11 11 12 11 11 10 9 9 10 10 10 9 9 9
5 4 6 9 10 11 12 13 13 13 13 14 14 14 14 14 13 13 13 12 12 13 13 12 12 11 11 11 11 11 11 11 11 11 9 8 8 11 11 11 10 10 9
5 6 7 10 10 11 12 12 12 13 13 14 13 14 14 14 14 14 14 13 13 14 13 13 12 12 11 12 12 12 11 11 12 11 9 9 8 11 11 10 10 9 9
5 6 8 10 10 11 11 12 12 12 13 13 13 14 14 14 14 14 14 14 14 14 13 13 12 12 12 12 12 12 12 12 11 10 8 8 8 10 10 10 9 9 9
5 6 8 9 10 10 10 11 11 12 12 13 13 13 14 14 14 14 13 13 13 13 12 12 12 12 11 11 11 12 12 12 11 9 8 7 8 10 10 10 9 9 9
6 6 7 9 9 9 9 10 11 12 12 12 12 13 13 13 13 13 13 13 12 12 12 11 11 11 10 11 11 12 12 11 10 9 8 8 10 11 11 10 9 9 9
7 6 6 7 7 8 9 10 11 11 11 12 12 12 12 12 12 12 12 12 12 12 12 11 11 10 10 11 11 12 12 12 9 7 7 7 10 11 11 10 9 9 9
5 5 4 5 6 7 9 11 11 11 11 11 11 11 11 11 11 11 11 11 11 11 11 12 11 12 12 12 12 12 12 11 9 8 7 8 11 11 11 10 10 9 9
5 4 4 4 4 5 7 9 9 9 9 9 9 10 9 7 7 8 9 10 10 11 11 11 11 11 11 11 11 12 11 8 8 7 7 9 10 11 11 11 10 10 10
3 3 3 3 3 4 6 6 6 6 6 7 7 7 7 6 6 7 8 9 10 10 10 11 11 11 9 8 9 10 8 8 7 6 7 9 9 9 10 9 9 9 10
4 4 3 4 4 5 4 5 5 5 5 5 5 6 6 6 6 6 5 7 8 9 8 9 9 8 7 7 6 6 7 6 6 6 7 8 9 9 9 9 8 9 9
5 4 4 4 4 4 5 4 4 4 4 4 4 6 6 4 4 4 4 5 6 6 6 6 5 7 7 7 6 6 6 6 6 6 6 8 8 8 8 9 9 9 9
5 4 4 5 4 4 4 3 4 4 4 4 4 5 6 4 3 3 3 5 5 5 5 4 4 5 5 5 5 5 5 5 6 7 7 8 8 8 9 9 9 9 9
5 5 4 5 5 5 4 3 4 4 5 6 6 5 6 6 4 3 3 4 4 5 5 5 4 4 4 4 4 4 4 5 5 5 6 7 8 8 8 8 8 8 8
6 5 5 6 5 5 5 4 5 5 6 5 5 6 7 7 6 4 3 3 4 5 6 6 5 5 4 4 4 3 3 4 4 4 5 5 6 7 7 8 8 7 7
6 6 5 6 6 5 5 5 5 5 6 5 6 6 7 7 6 5 4 3 5 6 5 4 4 4 4 4 3 3 3 3 3 4 4 5 5 5 6 7 7 7 6
7 6 5 6 6 5 5 5 5 5 5 5 6 6 6 7 7 6 4 3 5 5 4 4 4 3 3 3 3 3 3 2 2 3 4 4 4 4 5 6 7 6 6
6 6 6 6 6 5 5 4 4 4 4 5 5 5 6 6 7 6 4 4 5 4 4 3 3 3 2 2 3 3 3 3 2 3 3 3 4 4 4 4 4 5 5
6 6 6 6 5 5 3 3 3 2 2 2 3 5 5 6 6 5 4 3 4 3 3 3 3 3 3 3 3 4 4 4 3 3 2 3 3 4 5 4 4 4 3
7 6 6 6 5 5 3 3 2 2 1 1 2 4 5 5 5 5 4 3 3 3 4 4 3 3 2 3 2 2 3 4 4 4 3 3 3 3 4 4 3 4 4
7 7 7 6 5 4 4 4 3 3 2 2 2 2 3 3 4 4 4 3 3 3 2 2 3 3 2 2 2 2 2 1 3 3 4 4 3 3 2 3 4 4 4
7 6 6 6 6 5 5 5 5 4 2 1 1 0 2 3 3 3 3 3 2 2 2 1 2 2 2 1 2 1 1 2 1 2 3 3 3 3 3 3 3 3 3
6 6 6 6 5 5 5 6 6 3 2 1 1 1 2 2 3 2 3 2 2 1 1 2 2 2 1 1 1 1 1 2 1 1 2 3 3 3 2 2 2 2 3
5 5 6 7 5 5 5 5 6 5 4 3 1 1 1 1 2 2 2 2 1 1 1 1 1 1 1 1 1 1 1 1 0 1 1 1 2 3 2 2 1 2 2
Wind_Direction
314 335 46 61 65 67 69 72 74 75 75 75 75 75 76 75 74 74 75 75 78 81 82 83 87 89 89 87 85 83 82 80 80 80 78 78 80 82 79 80 80 77 85
182 59 67 69 68 69 70 73 74 75 77 77 78 78 77 76 75 74 74 75 78 82 83 82 83 85 86 85 83 80 80 80 78 77 72 70 74 76 76 78 83 85 85
137 91 77 77 74 71 72 73 75 77 79 79 78 78 76 74 73 73 73 76 79 82 83 81 80 82 82 81 79 78 77 75 73 74 68 62 72 73 73 76 77 80 82
124 100 87 83 79 77 75 74 76 79 80 78 77 77 74 72 71 70 72 76 79 82 81 78 77 77 77 76 76 75 73 71 72 70 60 60 68 72 72 72 73 73 77
111 101 94 85 82 81 79 77 77 80 81 80 79 78 75 73 71 71 72 74 78 80 79 76 75 73 73 73 73 71 69 69 73 66 61 59 66 73 71 71 70 69 72
104 95 94 87 83 81 81 80 80 82 83 82 81 79 77 74 73 73 74 76 78 78 78 77 75 73 73 73 71 70 72 74 74 70 65 61 67 75 73 72 70 68 68
106 96 96 90 86 84 84 84 83 84 85 84 82 80 78 75 74 73 75 76 76 76 77 77 75 72 73 75 71 72 76 78 76 72 66 66 74 74 73 70 70 69 68
114 98 97 91 87 87 89 93 91 88 86 84 82 81 79 77 75 74 74 76 75 73 73 74 74 73 72 73 73 75 77 77 77 74 65 66 74 71 68 66 69 71 71
103 95 86 89 86 83 88 99 97 90 85 83 81 81 77 75 75 74 73 74 74 73 72 71 70 70 72 72 72 72 77 78 70 70 71 70 75 71 65 66 70 73 72
99 93 84 78 73 74 88 98 95 90 86 83 80 78 76 72 73 74 71 69 67 69 71 70 66 65 65 65 66 70 76 72 63 62 64 74 73 71 66 67 74 75 74
96 99 89 80 74 75 84 91 90 88 83 80 76 76 74 67 65 69 70 65 62 61 62 64 64 64 61 59 61 64 69 68 66 65 69 76 73 70 67 66 71 74 72
115 117 108 92 78 77 86 83 78 81 75 73 71 69 67 69 64 65 63 59 56 54 54 55 57 58 56 51 55 60 63 66 66 64 74 75 71 70 67 66 69 70 67
141 126 114 103 87 82 82 84 76 73 71 69 66 68 70 67 61 52 47 42 42 45 45 45 45 50 60 64 60 59 65 70 64 60 69 72 70 69 69 66 67 69 70
120 120 119 109 92 87 88 81 77 74 72 68 68 72 77 68 59 50 46 38 41 44 49 48 51 50 55 60 66 67 66 70 62 55 63 65 63 64 66 66 66 70 70
125 122 126 122 111 94 82 74 74 71 75 76 70 67 77 79 72 60 51 47 45 51 57 58 57 59 57 56 65 71 68 68 64 61 57 57 55 59 64 63 63 67 68
132 123 119 119 112 97 90 84 80 77 75 73 66 65 77 83 83 72 58 50 45 49 54 61 63 68 65 66 56 61 68 69 64 62 56 54 53 58 63 64 64 65 68
140 127 119 122 108 103 98 88 84 80 77 68 65 63 71 81 81 77 64 55 48 51 58 62 57 61 55 51 44 45 62 63 62 61 61 56 52 54 64 65 63 61 64
133 128 125 125 115 110 99 90 82 75 72 68 70 66 66 72 77 73 65 55 55 58 61 64 54 52 44 39 32 28 44 55 56 59 64 56 54 53 58 63 62 57 57
140 134 122 120 120 119 103 92 84 75 68 66 64 62 63 67 76 77 70 59 64 62 53 61 60 70 58 42 40 37 31 36 42 63 58 54 57 57 58 56 53 50 49
137 129 121 117 115 115 102 91 75 66 59 57 58 61 64 68 73 76 73 59 64 66 53 56 62 57 60 48 50 39 21 21 40 44 51 51 47 48 52 49 46 38 35
133 129 127 124 121 118 113 113 104 91 69 52 53 62 67 66 69 72 68 61 63 71 73 78 70 61 45 47 57 27 11 14 27 34 40 48 47 47 47 40 35 24 13
148 146 139 139 139 133 137 141 136 134 120 88 49 52 62 67 67 76 74 73 71 74 68 69 75 71 48 44 71 62 14 358 0 11 20 31 34 44 39 32 33 32 27
152 159 157 154 147 136 125 109 91 73 52 43 36 26 32 62 70 74 83 82 77 83 90 82 89 92 73 9 47 100 108 271 319 340 8 22 26 29 23 30 41 35 30
165 160 156 153 147 140 133 129 129 128 132 182 179 44 28 50 64 75 87 87 85 83 93 82 82 92 110 64 356 29 124 153 170 316 339 3 9 19 8 25 38 35 24
160 156 158 147 141 143 140 141 137 131 143 141 97 64 30 25 38 58 91 94 88 82 76 68 67 76 98 116 94 33 47 50 76 168 292 329 350 357 358 13 39 43 35
145 142 150 150 150 153 146 145 146 148 147 135 120 91 25 360 5 22 60 85 93 90 75 84 81 90 78 84 87 91 109 113 226 155 207 300 320 326 346 4 22 31 40
Height
1523 1522 1520 1519 1518 1517 1516 1515 1514 1514 1513 1513 1512 1512 1511 1511 1511 1510 1510 1510 1509 1509 1509 1508 1508 1509 1510 1510 1511 1510 1510 1510 1510 1510 1510 1510 1509 1509 1509 1509 1509 1509 1509
1523 1522 1521 1520 1519 1518 1517 1516 1515 1515 1514 1514 1513 1513 1512 1512 1512 1511 1511 1510 1510 1510 1510 1510 1510 1511 1511 1512 1512 1512 1512 1512 1511 1511 1511 1511 1510 1511 1511 1510 1510 1510 1510
1522 1522 1522 1521 1520 1519 1518 1517 1517 1516 1516 1515 1515 1514 1513 1513 1513 1512 1512 1511 1511 1511 1511 1512 1512 1512 1513 1513 1513 1513 1513 1513 1513 1512 1512 1512 1512 1512 1511 1511 1511 1511 1510
1522 1522 1522 1522 1521 1520 1519 1518 1518 1517 1517 1516 1516 1515 1515 1514 1514 1513 1513 1512 1512 1512 1512 1513 1513 1513 1514 1514 1514 1514 1514 1514 1513 1513 1513 1513 1512 1512 1512 1512 1512 1511 1511
1522 1523 1523 1522 1522 1521 1520 1519 1519 1518 1518 1517 1517 1517 1516 1516 1515 1514 1514 1513 1513 1513 1513 1514 1514 1514 1514 1515 1515 1515 1515 1514 1514 1514 1514 1514 1513 1513 1513 1512 1512 1512 1512
1524 1524 1524 1523 1523 1522 1521 1520 1520 1520 1519 1519 1518 1518 1518 1517 1517 1516 1515 1515 1515 1515 1515 1515 1515 1515 1515 1515 1516 1516 1516 1515 1515 1515 1515 1515 1514 1514 1513 1513 1513 1512 1512
1526 1526 1525 1524 1523 1522 1521 1521 1521 1521 1521 1520 1520 1520 1519 1519 1518 1518 1517 1517 1517 1517 1517 1516 1516 1517 1517 1516 1517 1517 1517 1517 1516 1516 1516 1515 1515 1514 1514 1513 1513 1513 1512
1528 1527 1526 1525 1523 1521 1519 1519 1521 1522 1522 1522 1522 1521 1521 1520 1520 1520 1519 1519 1519 1519 1518 1518 1518 1518 1518 1518 1518 1518 1518 1518 1517 1517 1517 1516 1516 1515 1514 1513 1512 1513 1513
1529 1529 1528 1526 1523 1519 1515 1516 1521 1523 1524 1524 1523 1523 1523 1522 1522 1521 1521 1521 1521 1520 1520 1520 1520 1520 1519 1519 1519 1519 1519 1519 1518 1518 1518 1517 1516 1515 1514 1512 1512 1512 1513
1531 1530 1529 1528 1525 1521 1518 1519 1523 1525 1525 1525 1525 1525 1524 1524 1524 1523 1523 1523 1522 1522 1522 1522 1522 1521 1521 1521 1520 1520 1520 1520 1519 1519 1518 1518 1517 1516 1514 1512 1512 1513 1513
1532 1532 1531 1530 1528 1526 1525 1525 1526 1527 1527 1527 1527 1527 1526 1526 1525 1525 1525 1525 1524 1524 1523 1523 1523 1523 1523 1522 1522 1521 1521 1521 1520 1520 1519 1519 1518 1517 1516 1514 1514 1514 1513
1533 1533 1532 1532 1531 1530 1529 1529 1529 1529 1529 1529 1529 1528 1528 1528 1527 1527 1527 1526 1526 1525 1525 1525 1524 1524 1524 1524 1523 1523 1522 1522 1521 1521 1520 1520 1519 1518 1516 1516 1515 1514 1514
1534 1534 1534 1534 1533 1532 1532 1532 1531 1531 1531 1531 1530 1530 1530 1529 1529 1529 1528 1527 1527 1527 1526 1526 1525 1525 1525 1525 1524 1524 1523 1523 1522 1522 1521 1520 1519 1518 1518 1517 1516 1515 1515
1535 1535 1535 1535 1535 1534 1534 1534 1534 1533 1533 1532 1532 1532 1531 1531 1530 1530 1529 1529 1528 1528 1527 1527 1527 1526 1526 1526 1525 1525 1524 1524 1523 1522 1521 1521 1520 1519 1519 1518 1517 1517 1516
1536 1536 1536 1536 1536 1536 1535 1535 1535 1535 1534 1534 1534 1533 1533 1532 1532 1531 1531 1530 1530 1529 1529 1528 1528 1528 1527 1527 1526 1526 1525 1524 1524 1523 1522 1521 1521 1520 1520 1519 1518 1518 1517
1536 1536 1537 1537 1537 1537 1537 1537 1536 1536 1536 1535 1535 1534 1534 1533 1533 1533 1532 1531 1531 1530 1530 1529 1529 1528 1528 1528 1527 1527 1526 1525 1525 1524 1523 1522 1522 1521 1520 1520 1519 1518 1518
1536 1537 1537 1537 1537 1537 1537 1538 1537 1537 1537 1536 1536 1535 1535 1535 1534 1533 1533 1532 1532 1531 1531 1530 1530 1529 1528 1528 1527 1527 1526 1526 1525 1525 1524 1523 1522 1521 1521 1520 1519 1519 1518
1536 1537 1537 1537 1538 1538 1538 1538 1538 1538 1538 1537 1537 1536 1536 1535 1535 1534 1533 1533 1532 1532 1531 1531 1530 1529 1529 1528 1528 1527 1527 1526 1526 1525 1524 1523 1522 1522 1521 1520 1520 1519 1518
1536 1536 1537 1537 1538 1538 1539 1539 1539 1539 1538 1538 1537 1537 1537 1536 1535 1535 1534 1533 1533 1532 1532 1531 1530 1529 1529 1528 1528 1528 1527 1526 1526 1525 1525 1524 1523 1522 1521 1521 1520 1519 1519
1535 1536 1537 1537 1538 1538 1539 1539 1539 1539 1539 1538 1538 1537 1537 1536 1536 1535 1535 1534 1533 1533 1532 1531 1530 1530 1529 1528 1528 1528 1527 1527 1526 1525 1525 1524 1523 1522 1522 1521 1520 1519 1519
1534 1535 1536 1537 1537 1538 1538 1538 1538 1539 1539 1538 1538 1538 1537 1537 1536 1535 1535 1534 1533 1533 1532 1531 1531 1530 1529 1528 1528 1527 1527 1527 1526 1526 1525 1524 1523 1522 1522 1521 1520 1520 1519
1533 1534 1535 1536 1536 1537 1537 1538 1538 1539 1539 1539 1538 1538 1537 1537 1536 1535 1535 1534 1533 1533 1532 1531 1531 1530 1529 1528 1527 1527 1527 1528 1526 1526 1525 1524 1523 1522 1521 1521 1520 1519 1519
1532 1533 1534 1535 1536 1536 1537 1538 1538 1539 1539 1538 1538 1537 1537 1537 1536 1535 1535 1534 1533 1533 1532 1531 1531 1530 1529 1529 1528 1528 1527 1526 1526 1526 1525 1524 1523 1522 1521 1520 1520 1519 1518
1530 1532 1533 1534 1535 1536 1536 1537 1537 1537 1537 1537 1537 1537 1537 1536 1536 1535 1534 1534 1533 1532 1532 1531 1531 1530 1529 1528 1528 1528 1528 1527 1526 1525 1524 1523 1523 1522 1521 1520 1519 1518 1518
1529 1531 1532 1533 1534 1535 1536 1536 1536 1537 1537 1537 1537 1537 1536 1536 1535 1534 1534 1533 1533 1532 1532 1531 1530 1530 1529 1529 1528 1527 1526 1526 1526 1525 1523 1522 1522 1521 1520 1519 1518 1518 1517
1528 1529 1531 1532 1533 1534 1535 1535 1535 1536 1536 1536 1536 1536 1535 1535 1534 1534 1533 1533 1532 1532 1531 1531 1530 1529 1529 1528 1527 1526 1526 1525 1525 1524 1523 1521 1520 1520 1519 1519 1518 1517 1516